Hourly Data Report for September 08, 2017

All times are specified in Local Standard Time (LST). Add 1 hour to adjust for Daylight Saving Time where and when it is observed.

KOUCHIBOUGUAC CS
NEW BRUNSWICK

46°47'00.000" N
65°01'00.000" W
21.00 m
8102328
71670
AKC

Download Data

Hourly Data (September 2017)
Hourly Data Report for September 8, 2017
Temp Definition
°C
Dew Point Temp Definition
°C
Rel Hum Definition
%
Wind Dir Definition
10's deg

Wind Spd Definition
km/h
Visibility Definition
km
Stn Press Definition
kPa
Hmdx Definition


Wind Chill Definition


Weather Definition


TIME
00:00 15.9 14.7 93 19 11   100.61     LegendNANA
01:00 15.4 14.2 93 20 8   100.62     LegendNANA
02:00 14.7 14.1 96 22 4   100.67     LegendNANA
03:00 14.3 13.7 96 20 7   100.71     LegendNANA
04:00 13.9 13.4 97 20 5   100.72     LegendNANA
05:00 13.7 13.3 97 20 6   100.76     LegendNANA
06:00 13.4 12.9 97 20 6   100.81     LegendNANA
07:00 14.0 13.2 95 21 7   100.90     LegendNANA
08:00 15.7 13.2 85 22 8   101.00     LegendNANA
09:00 17.3 12.9 75 24 9   101.07     LegendNANA
10:00 18.7 12.6 68 24 10   101.10     LegendNANA
11:00 19.9 12.8 64 23 11   101.12     LegendNANA
12:00 21.3 11.7 54 24 14   101.12     LegendNANA
13:00 21.2 11.3 53 24 11   101.14     LegendNANA
14:00 22.0 10.9 49 23 10   101.17     LegendNANA
15:00 22.2 11.3 50 27 10   101.19     LegendNANA
16:00 22.0 9.8 46 26 11   101.26     LegendNANA
17:00 22.2 9.7 45 25 6   101.29     LegendNANA
18:00 19.9 11.4 58 21 3   101.33     LegendNANA
19:00 14.1 11.7 86 18 3   101.39     LegendNANA
20:00 12.8 11.3 91 21 2   101.51     LegendNANA
21:00 14.9 12.5 86 3 3   101.57     LegendNANA
22:00 12.8 11.8 94   0   101.62     LegendNANA
23:00 11.5 11.0 96 0 1   101.63     LegendNANA

Notes on Data Quality.

Legend

  • E = Estimated
  • M = Missing
  • NA = Not Available
  • ‡ = Partner data that is not subject to review by the National Climate Archives
Date modified: